Location: Walnut Point State Park
(39.6958°N, 88.0345°W)
Time: 09:03:10
(UTC-05:00)

Amateur Radio Satellites - All Passes

Search period start: 29 July 2016 08:33
Search period end: 30 July 2016 08:33
Location: Walnut Point State Park, 39.6958°N, 88.0345°W

Satellite Date Start Highest point End Downlink Frequencies (MHz)
Time Altitude Azimuth
CUTE 1.7 + AOD 2 29 Jul 08:39:01 08:43:08 52° 99° (E) 08:47:14 437.475
CUBEBUG 2 29 Jul 08:39:06 08:42:32 20° 92° (E) 08:45:52 437.445
HO-68 29 Jul 08:41:12 08:48:18 57° 102° (ESE) 08:55:19 435.675
PRISM 29 Jul 08:50:25 08:54:28 77° 256° (WSW) 08:58:34 437.425
UNISAT 6 29 Jul 09:04:41 09:06:55 13° 63° (ENE) 09:09:09 437.425
SEEDS 29 Jul 09:13:57 09:18:08 86° 282° (WNW) 09:22:17 437.485
NOAA 18 29 Jul 09:16:51 09:18:12 11° 304° (WNW) 09:19:33 137.9125
COMPASS 1 29 Jul 09:21:24 09:25:33 80° 100° (E) 09:29:40 437.405
CINEMA 3 29 Jul 09:23:09 09:27:55 43° 288° (WNW) 09:32:35 145.822/145.860
DOVE 4 29 Jul 09:29:52 09:32:34 14° 297° (WNW) 09:35:18 437.250
ANTELSAT 29 Jul 09:40:54 09:44:57 31° 69° (ENE) 09:49:04 437.575/2403.000
FUNcube-1 29 Jul 09:40:55 09:45:02 36° 97° (E) 09:49:02 145.935
SO-50 29 Jul 09:41:50 09:44:24 14° 320° (NW) 09:46:57 436.795
ZACube-1 29 Jul 09:43:05 09:47:20 41° 98° (E) 09:51:26 437.345
RS-15 29 Jul 09:46:45 09:56:26 28° 333° (NNW) 10:06:30 29.354- 29.394
AAUSAT CUBESAT 2 29 Jul 09:47:28 09:51:33 64° 284° (WNW) 09:55:36 437.432
UWE-3 29 Jul 09:47:37 09:52:12 74° 101° (E) 09:56:39 435.000/436.395/437.385
DELFI C3 29 Jul 09:51:24 09:54:21 20° 94° (E) 09:57:18 145.870
YUBILEINY 29 Jul 09:55:24 10:04:11 87° 96° (E) 10:13:05 435.215
CANX-2 29 Jul 10:03:05 10:05:38 16° 294° (WNW) 10:08:10 2200.000
Cosmos 2504 29 Jul 10:10:44 10:18:46 40° 87° (E) 10:26:45 435.465 / 435.565
CUBEBUG 2 29 Jul 10:14:55 10:19:16 39° 289° (WNW) 10:23:32 437.445
CUTE 1.7 + AOD 2 29 Jul 10:16:31 10:18:31 13° 295° (WNW) 10:20:30 437.475
POPSAT HIP 1 29 Jul 10:17:05 10:17:54 10° 62° (ENE) 10:18:43 437.405
Oscar 11 29 Jul 10:19:59 10:24:18 74° 284° (WNW) 10:28:34 145.826/435.025
TIGRISAT 29 Jul 10:21:11 10:25:49 77° 75° (ENE) 10:30:32 435.000
Cosmos 2491 29 Jul 10:27:24 10:34:27 28° 277° (W) 10:41:32 435.465 / 435.565
HO-68 29 Jul 10:29:41 10:35:34 28° 299° (WNW) 10:41:25 435.675
QB50P2 29 Jul 10:36:12 10:39:12 19° 67° (ENE) 10:42:13 145.880/145.840
HUMSAT D 29 Jul 10:37:16 10:41:04 33° 97° (E) 10:44:47 437.325/437.525
UNISAT 6 29 Jul 10:38:25 10:43:01 66° 259° (WSW) 10:47:43 437.425
POLYITAN 1 29 Jul 10:38:47 10:41:50 19° 67° (ENE) 10:44:53 437.675
M-CUBED/EXP-1 PRIME 29 Jul 10:59:12 11:03:55 69° 106° (ESE) 11:08:34 437.505
FUNcube-1 29 Jul 11:17:45 11:21:00 20° 293° (WNW) 11:24:12 145.935
ANTELSAT 29 Jul 11:17:45 11:21:37 26° 265° (W) 11:25:34 437.575/2403.000
NANOSAT C BR1 29 Jul 11:18:26 11:22:30 48° 73° (ENE) 11:26:37 145.865
ZACube-1 29 Jul 11:20:13 11:23:16 18° 294° (WNW) 11:26:16 437.345
DUCHIFAT 1 29 Jul 11:21:30 11:25:34 49° 73° (ENE) 11:29:42 145.980
AUBIESAT-1 29 Jul 11:23:16 11:27:57 81° 289° (WNW) 11:32:31 437.475
DELFI C3 29 Jul 11:25:50 11:29:12 27° 289° (WNW) 11:32:33 145.870
UWE-3 29 Jul 11:26:31 11:27:59 11° 298° (WNW) 11:29:25 435.000/436.395/437.385
BUGSAT 1 29 Jul 11:26:53 11:30:12 24° 68° (ENE) 11:33:33 437.445
JAS-2 29 Jul 11:41:03 11:46:15 33° 69° (ENE) 11:51:04 435.910
QB50P1 29 Jul 11:42:06 11:46:21 83° 257° (WSW) 11:50:39 145.935-145.965
POPSAT HIP 1 29 Jul 11:48:50 11:53:03 71° 258° (WSW) 11:57:20 437.405
ESTCUBE 1 29 Jul 11:52:06 11:56:17 38° 98° (E) 12:00:27 437.505/2401.250
CUBEBUG 1 29 Jul 11:53:33 11:57:16 26° 96° (E) 12:00:57 437.445
YUBILEINY 29 Jul 11:56:15 12:02:11 19° 297° (WNW) 12:08:10 435.215
AO-85 29 Jul 11:56:40 11:58:22 11° 106° (ESE) 12:00:04 145.980
VELOX 1 29 Jul 11:58:47 12:02:29 25° 96° (E) 12:06:09 145.980
Cosmos 2504 29 Jul 12:03:36 12:11:59 45° 285° (WNW) 12:20:22 435.465 / 435.565
RS-15 29 Jul 12:06:17 12:14:52 21° 9° (N) 12:23:33 29.354- 29.394
AIST 1 29 Jul 12:06:39 12:07:23 10° 84° (E) 12:08:06
50 SAT 29 Jul 12:08:31 12:11:44 30° 97° (E) 12:14:56 437.505
QB50P2 29 Jul 12:10:48 12:14:43 36° 262° (W) 12:18:42 145.880/145.840
POLYITAN 1 29 Jul 12:13:27 12:17:21 35° 262° (W) 12:21:20 437.675
HUMSAT D 29 Jul 12:13:27 12:16:26 19° 293° (WNW) 12:19:23 437.325/437.525
DX 1 29 Jul 12:34:31 12:38:42 44° 99° (E) 12:42:53 434.975-435.025
M-CUBED/EXP-1 PRIME 29 Jul 12:35:16 12:37:51 15° 302° (WNW) 12:40:24 437.505
Oscar 19 29 Jul 12:43:12 12:47:40 31° 68° (ENE) 12:52:10 437.125/150
AISAT 29 Jul 12:43:20 12:47:49 84° 106° (ESE) 12:52:17 437.250
UKube-1 29 Jul 12:43:31 12:47:40 43° 100° (E) 12:51:47 .
Gurwin Techsat 1B 29 Jul 12:45:30 12:48:35 16° 61° (ENE) 12:51:40 435.225
NANOSAT C BR1 29 Jul 12:56:25 12:58:30 13° 269° (W) 13:00:36 145.865
DUCHIFAT 1 29 Jul 12:59:31 13:01:33 13° 269° (W) 13:03:34 145.980
BUGSAT 1 29 Jul 13:02:03 13:05:27 25° 264° (W) 13:08:56 437.445
SPROUT 29 Jul 13:11:52 13:16:13 80° 103° (ESE) 13:20:31 437.525
JAS-2 29 Jul 13:26:04 13:31:19 31° 262° (W) 13:36:11 435.910
ESTCUBE 1 29 Jul 13:29:35 13:32:49 20° 294° (WNW) 13:36:04 437.505/2401.250
CUBEBUG 1 29 Jul 13:29:45 13:33:28 27° 291° (WNW) 13:37:12 437.445
AO-85 29 Jul 13:32:47 13:38:12 89° 125° (SE) 13:43:23 145.980
VELOX 1 29 Jul 13:35:04 13:38:53 29° 291° (WNW) 13:42:42 145.980
AIST 1 29 Jul 13:40:13 13:44:23 57° 280° (W) 13:48:36
50 SAT 29 Jul 13:42:58 13:45:06 15° 293° (WNW) 13:47:14 437.505
TISAT 1 29 Jul 13:58:09 14:02:23 58° 101° (ESE) 14:06:33 437.305
GONETS M04 29 Jul 14:06:33 14:13:05 24° 81° (E) 14:19:37
DX 1 29 Jul 14:11:44 14:14:32 17° 295° (WNW) 14:17:20 434.975-435.025
ITUPSAT 1 29 Jul 14:20:16 14:23:30 18° 93° (E) 14:26:43 437.325
RS-15 29 Jul 14:20:33 14:32:05 42° 42° (NE) 14:43:30 29.354- 29.394
UKube-1 29 Jul 14:20:36 14:23:21 17° 295° (WNW) 14:26:05 .
Oscar 19 29 Jul 14:22:30 14:26:56 30° 264° (W) 14:31:24 437.125/150
ITAMSAT 1 29 Jul 14:22:36 14:27:28 40° 69° (ENE) 14:32:20 435.822/435.867
Gurwin Techsat 1B 29 Jul 14:22:38 14:27:56 69° 258° (WSW) 14:33:15 435.225
AO-7 29 Jul 14:46:20 14:54:08 46° 63° (ENE) 15:01:57 29.400- 29.500
SO-50 29 Jul 14:52:43 14:54:01 11° 36° (NE) 14:55:18 436.795
Cosmos 2499 29 Jul 14:55:30 15:03:27 39° 87° (E) 15:11:13 435.465 / 435.565
CUSAT 1 29 Jul 15:00:28 15:03:35 50° 262° (W) 15:07:32 437.405
SWISSCUBE 29 Jul 15:10:50 15:15:36 70° 102° (ESE) 15:20:19 437.505
AO-85 29 Jul 15:16:01 15:19:19 16° 318° (NW) 15:22:31 145.980
PHONESAT 2.4 29 Jul 15:22:38 15:24:48 18° 150° (SSE) 15:26:59 2401.200-2431.200
BEESAT 29 Jul 15:31:55 15:36:42 79° 285° (WNW) 15:41:26 436.000
TISAT 1 29 Jul 15:35:43 15:37:31 12° 297° (WNW) 15:39:18 437.305
DANDE 29 Jul 15:48:13 15:50:44 36° 263° (W) 15:53:38 436.750
MOZHAYETS 4 29 Jul 15:50:29 15:53:53 20° 94° (E) 15:57:15
ITUPSAT 1 29 Jul 15:57:00 16:01:33 45° 289° (WNW) 16:06:03 437.325
GONETS M04 29 Jul 16:00:26 16:09:03 68° 280° (W) 16:17:46
ITAMSAT 1 29 Jul 16:02:53 16:07:02 24° 265° (W) 16:11:13 435.822/435.867
SO-50 29 Jul 16:30:47 16:35:25 67° 56° (NE) 16:39:53 436.795
KKS-1 29 Jul 16:32:56 16:37:21 53° 100° (E) 16:41:43 437.445
RS-15 29 Jul 16:33:13 16:45:25 68° 246° (WSW) 16:57:22 29.354- 29.394
NOAA 15 29 Jul 16:35:05 16:36:54 12° 59° (ENE) 16:38:44 137.62
AO-7 29 Jul 16:39:10 16:46:53 41° 261° (W) 16:54:41 29.400- 29.500
Cosmos 2499 29 Jul 16:47:57 16:56:23 47° 284° (WNW) 17:04:38 435.465 / 435.565
SWISSCUBE 29 Jul 16:50:40 16:52:47 13° 299° (WNW) 16:54:53 437.505
BRITE-PL 29 Jul 16:52:14 16:54:30 14° 65° (ENE) 16:56:47 437.365/2234.400
HORYU 2 29 Jul 16:53:48 16:58:16 71° 76° (ENE) 17:02:46 437.375
PHONESAT 2.4 29 Jul 16:57:55 17:00:59 70° 166° (SSE) 17:04:03 2401.200-2431.200
STARS 29 Jul 17:04:20 17:08:44 57° 101° (E) 17:13:05 437.465
LilacSat-2 29 Jul 17:11:32 17:13:01 12° 65° (ENE) 17:14:31 437.200
CUBESAT XI-V 29 Jul 17:16:56 17:20:23 21° 94° (E) 17:23:50 437.345
NOAA 18 29 Jul 17:19:17 17:23:41 25° 64° (ENE) 17:28:07 137.9125
BEESAT 3 29 Jul 17:21:22 17:24:37 25° 113° (ESE) 17:27:53 437.485
MOZHAYETS 4 29 Jul 17:26:57 17:31:09 36° 289° (WNW) 17:35:17
BEESAT 2 29 Jul 17:33:32 17:36:15 18° 111° (ESE) 17:39:00 435.950
Cubesat XI-IV 29 Jul 17:37:13 17:41:59 34° 68° (ENE) 17:46:47 437.490
GOMX 1 29 Jul 17:39:36 17:42:47 21° 67° (ENE) 17:46:04 467.674
CUTE-I 29 Jul 17:59:27 18:04:40 54° 72° (ENE) 18:09:54 437.470
GONETS M04 29 Jul 18:04:26 18:07:45 12° 302° (WNW) 18:11:04
NOAA 15 29 Jul 18:10:39 18:15:54 89° 259° (W) 18:21:10 137.62
KKS-1 29 Jul 18:10:54 18:13:28 15° 296° (WNW) 18:16:00 437.445
SO-50 29 Jul 18:13:25 18:15:15 12° 253° (WSW) 18:17:04 436.795
BRITE-PL 29 Jul 18:28:41 18:32:37 43° 261° (W) 18:36:38 437.365/2234.400
PHONESAT 2.4 29 Jul 18:34:26 18:37:31 74° 1° (N) 18:40:36 2401.200-2431.200
STARS 29 Jul 18:42:20 18:44:35 14° 297° (WNW) 18:46:49 437.465
LilacSat-2 29 Jul 18:43:06 18:46:51 49° 261° (W) 18:50:40 437.200
CINEMA 3 29 Jul 18:48:20 18:51:14 17° 64° (ENE) 18:54:12 145.822/145.860
RS-15 29 Jul 18:50:11 18:55:23 14° 266° (W) 19:00:36 29.354- 29.394
PCSat 29 Jul 18:51:07 18:56:29 68° 115° (ESE) 19:01:53 145.827
CUBESAT XI-V 29 Jul 18:53:38 18:57:51 37° 289° (WNW) 19:02:06 437.345
DOVE 4 29 Jul 18:55:10 18:59:25 64° 75° (ENE) 19:03:58 437.250
NOAA 18 29 Jul 18:58:48 19:04:03 44° 260° (W) 19:09:22 137.9125
BEESAT 3 29 Jul 18:58:51 19:02:12 26° 310° (NW) 19:05:36 437.485
HO-68 29 Jul 19:08:58 19:15:30 39° 65° (ENE) 19:22:03 435.675
BEESAT 2 29 Jul 19:10:08 19:13:48 36° 307° (NW) 19:17:32 435.950
GOMX 1 29 Jul 19:16:59 19:20:41 30° 264° (W) 19:24:33 467.674
Cubesat XI-IV 29 Jul 19:17:20 19:22:01 30° 264° (W) 19:26:44 437.490
CANX-2 29 Jul 19:18:10 19:21:48 28° 70° (ENE) 19:25:27 2200.000
ISS 29 Jul 19:26:46 19:28:54 16° 131° (SE) 19:31:02 145.825
CUTE 1.7 + AOD 2 29 Jul 19:30:48 19:34:38 33° 71° (ENE) 19:38:28 437.475
CUBEBUG 2 29 Jul 19:36:48 19:39:40 16° 64° (ENE) 19:42:33 437.445
Cosmos 2491 29 Jul 19:40:19 19:42:48 11° 74° (ENE) 19:45:18 435.465 / 435.565
CUTE-I 29 Jul 19:41:21 19:45:01 18° 268° (W) 19:48:42 437.470
STRAND 1 29 Jul 19:51:47 19:56:45 49° 100° (E) 20:01:39 437.568
AIST 2 29 Jul 19:56:35 20:00:09 29° 114° (ESE) 20:03:46 435.215
SEEDS 29 Jul 20:04:25 20:08:34 57° 75° (ENE) 20:12:43 437.485
YUBILEINY 29 Jul 20:06:58 20:15:16 42° 74° (ENE) 20:23:25 435.215
Cosmos 2504 29 Jul 20:07:55 20:10:24 12° 57° (ENE) 20:12:50 435.465 / 435.565
PHONESAT 2.4 29 Jul 20:10:58 20:14:01 55° 198° (SSW) 20:17:01 2401.200-2431.200
COMPASS 1 29 Jul 20:11:03 20:15:03 46° 73° (ENE) 20:19:03 437.405
O/OREOS (USA 219) 29 Jul 20:15:15 20:19:40 74° 110° (ESE) 20:24:09 437.305
CINEMA 3 29 Jul 20:23:28 20:27:52 51° 261° (W) 20:32:31 145.822/145.860
PRISM 29 Jul 20:34:00 20:36:21 15° 93° (E) 20:38:41 437.425
FUNcube-1 29 Jul 20:35:27 20:39:15 27° 69° (ENE) 20:43:06 145.935
AAUSAT CUBESAT 2 29 Jul 20:36:21 20:40:29 73° 77° (ENE) 20:44:38 437.432
PCSat 29 Jul 20:36:31 20:40:24 20° 314° (NW) 20:44:18 145.827
DOVE 4 29 Jul 20:36:45 20:37:40 11° 272° (W) 20:38:36 437.250
ZACube-1 29 Jul 20:37:48 20:41:46 30° 70° (ENE) 20:45:47 437.345
AUBIESAT-1 29 Jul 20:38:00 20:38:33 10° 55° (NE) 20:39:06 437.475
DELFI C3 29 Jul 20:38:13 20:39:35 12° 64° (ENE) 20:40:57 145.870
UWE-3 29 Jul 20:43:08 20:47:35 53° 73° (ENE) 20:52:09 435.000/436.395/437.385
CANX-2 29 Jul 20:54:10 20:57:37 23° 265° (W) 21:01:05 2200.000
HO-68 29 Jul 20:56:30 21:03:07 40° 262° (W) 21:09:50 435.675
ISS 29 Jul 21:01:53 21:05:04 49° 327° (NNW) 21:08:14 145.825
CUTE 1.7 + AOD 2 29 Jul 21:07:25 21:10:32 20° 266° (W) 21:13:39 437.475
CUBEBUG 2 29 Jul 21:11:18 21:15:48 52° 261° (W) 21:20:26 437.445
Oscar 11 29 Jul 21:13:25 21:17:45 75° 75° (ENE) 21:22:06 145.826/435.025
HUMSAT D 29 Jul 21:27:53 21:31:14 22° 68° (ENE) 21:34:35 437.325/437.525
Cosmos 2491 29 Jul 21:29:18 21:37:54 71° 93° (E) 21:46:34 435.465 / 435.565
STRAND 1 29 Jul 21:31:54 21:35:32 20° 296° (WNW) 21:39:09 437.568
AIST 2 29 Jul 21:35:10 21:38:37 26° 311° (NW) 21:42:07 435.215
SEEDS 29 Jul 21:43:18 21:44:36 11° 270° (W) 21:45:54 437.485
M-CUBED/EXP-1 PRIME 29 Jul 21:44:55 21:48:41 70° 71° (ENE) 21:52:51 437.505
PHONESAT 2.4 29 Jul 21:48:33 21:50:05 13° 213° (SSW) 21:51:36 2401.200-2431.200
COMPASS 1 29 Jul 21:48:44 21:50:50 14° 268° (W) 21:52:56 437.405
Cosmos 2504 29 Jul 21:57:34 22:05:38 68° 80° (E) 22:13:04 435.465 / 435.565
O/OREOS (USA 219) 29 Jul 21:57:56 21:59:38 12° 308° (NW) 22:01:19 437.305
YUBILEINY 29 Jul 22:03:54 22:11:58 42° 273° (W) 22:20:00 435.215
AO-85 29 Jul 22:06:11 22:10:30 56° 55° (NE) 22:14:29 145.980
PRISM 29 Jul 22:07:58 22:11:50 41° 288° (WNW) 22:15:42 437.425
AUBIESAT-1 29 Jul 22:08:26 22:12:17 75° 255° (WSW) 22:16:28 437.475
DELFI C3 29 Jul 22:10:04 22:13:57 54° 260° (W) 22:17:51 145.870
FUNcube-1 29 Jul 22:11:28 22:15:23 28° 265° (W) 22:19:21 145.935
ZACube-1 29 Jul 22:14:16 22:18:01 25° 265° (W) 22:21:49 437.345
TIGRISAT 29 Jul 22:14:53 22:17:56 17° 92° (E) 22:20:55 435.000
UWE-3 29 Jul 22:21:47 22:24:21 15° 269° (W) 22:26:56 435.000/436.395/437.385
UNISAT 6 29 Jul 22:31:33 22:35:30 28° 95° (E) 22:39:21 437.425
ISS 29 Jul 22:40:21 22:42:06 14° 345° (NNW) 22:43:51 145.825
50 SAT 29 Jul 22:46:34 22:48:26 14° 66° (ENE) 22:50:17 437.505
CUBEBUG 1 29 Jul 22:49:15 22:52:23 20° 67° (ENE) 22:55:31 437.445
ESTCUBE 1 29 Jul 22:50:52 22:54:50 32° 70° (ENE) 22:58:49 437.505/2401.250
VELOX 1 29 Jul 22:55:43 22:58:59 21° 67° (ENE) 23:02:15 145.980
HUMSAT D 29 Jul 23:02:52 23:06:40 30° 263° (W) 23:10:30 437.325/437.525
ANTELSAT 29 Jul 23:09:26 23:14:03 73° 101° (E) 23:18:32 437.575/2403.000
QB50P1 29 Jul 23:28:46 23:31:34 17° 93° (E) 23:34:21 145.935-145.965
Cosmos 2491 29 Jul 23:28:48 23:35:31 24° 293° (WNW) 23:42:18 435.465 / 435.565
DX 1 29 Jul 23:29:14 23:33:08 34° 70° (ENE) 23:37:04 434.975-435.025
POPSAT HIP 1 29 Jul 23:35:14 23:38:23 20° 94° (E) 23:41:30 437.405
UKube-1 29 Jul 23:37:15 23:41:06 33° 70° (ENE) 23:44:58 .
AISAT 29 Jul 23:39:37 23:43:57 66° 74° (ENE) 23:48:19 437.250
AIST 1 29 Jul 23:48:06 23:51:57 30° 76° (ENE) 23:55:48
AO-85 29 Jul 23:48:39 23:50:17 12° 254° (WSW) 23:51:53 145.980
TIGRISAT 29 Jul 23:50:27 23:54:50 43° 288° (WNW) 23:59:04 435.000
Cosmos 2504 29 Jul 23:52:28 23:58:03 21° 280° (W) 00:03:24 435.465 / 435.565
QB50P2 29 Jul 23:56:18 00:00:17 36° 98° (E) 00:04:14 145.880/145.840
POLYITAN 1 29 Jul 23:58:56 00:02:56 37° 98° (E) 00:06:54 437.675
SPROUT 30 Jul 00:04:19 00:08:28 52° 73° (ENE) 00:12:39 437.525
UNISAT 6 30 Jul 00:08:14 00:12:07 27° 292° (WNW) 00:15:55 437.425
50 SAT 30 Jul 00:18:19 00:21:44 36° 262° (W) 00:25:08 437.505
ISS 30 Jul 00:18:50 00:19:40 11° 6° (N) 00:20:29 145.825
GONETS M04 30 Jul 00:19:38 00:21:20 11° 56° (NE) 00:23:02
CUBEBUG 1 30 Jul 00:24:29 00:28:25 35° 262° (W) 00:32:24 437.445
ESTCUBE 1 30 Jul 00:28:06 00:31:38 23° 265° (W) 00:35:12 437.505/2401.250
VELOX 1 30 Jul 00:31:13 00:35:12 34° 262° (W) 00:39:14 145.980
JAS-2 30 Jul 00:34:23 00:39:07 30° 97° (E) 00:44:13 435.910
NANOSAT C BR1 30 Jul 00:39:00 00:43:17 79° 284° (WNW) 00:47:32 145.865
DUCHIFAT 1 30 Jul 00:41:46 00:46:03 79° 284° (WNW) 00:50:17 145.980
BUGSAT 1 30 Jul 00:43:46 00:47:53 46° 99° (E) 00:51:57 437.445
ANTELSAT 30 Jul 00:48:31 00:50:06 12° 299° (WNW) 00:51:39 437.575/2403.000
TISAT 1 30 Jul 00:48:54 00:52:46 38° 71° (ENE) 00:56:42 437.305
Oscar 19 30 Jul 00:57:45 00:59:11 11° 89° (E) 01:00:36 437.125/150
BEESAT 30 Jul 01:03:03 01:04:52 12° 61° (ENE) 01:06:42 436.000
QB50P1 30 Jul 01:03:29 01:07:29 39° 288° (WNW) 01:11:27 145.935-145.965
DX 1 30 Jul 01:06:14 01:09:24 20° 266° (W) 01:12:34 434.975-435.025
POPSAT HIP 1 30 Jul 01:10:21 01:14:13 33° 290° (WNW) 01:18:04 437.405
UKube-1 30 Jul 01:14:00 01:17:11 20° 265° (W) 01:20:25 .
AISAT 30 Jul 01:20:07 01:20:51 10° 270° (W) 01:21:34 437.250
AIST 1 30 Jul 01:26:04 01:29:20 21° 272° (W) 01:32:37
ITUPSAT 1 30 Jul 01:26:18 01:29:48 21° 65° (ENE) 01:33:19 437.325
QB50P2 30 Jul 01:32:48 01:35:49 19° 294° (WNW) 01:38:48 145.880/145.840
POLYITAN 1 30 Jul 01:35:28 01:38:27 19° 294° (WNW) 01:41:24 437.675
BEESAT 3 30 Jul 01:39:39 01:41:56 15° 44° (NE) 01:44:12 437.485
SPROUT 30 Jul 01:42:51 01:44:43 13° 269° (W) 01:46:35 437.525
BEESAT 2 30 Jul 01:52:39 01:54:05 12° 42° (NE) 01:55:30 435.950
ISS 30 Jul 01:54:18 01:57:01 24° 26° (NNE) 01:59:44 145.825
GONETS M04 30 Jul 02:11:34 02:20:16 60° 78° (ENE) 02:28:58
SWISSCUBE 30 Jul 02:16:13 02:20:59 73° 75° (ENE) 02:25:45 437.505
JAS-2 30 Jul 02:19:24 02:24:13 34° 291° (WNW) 02:29:24 435.910
BUGSAT 1 30 Jul 02:20:20 02:22:51 15° 295° (WNW) 02:25:22 437.445
TISAT 1 30 Jul 02:25:50 02:28:33 17° 267° (W) 02:31:19 437.305
JUGNU 30 Jul 02:30:39 02:31:30 10° 181° (S) 02:32:21 437.505
Oscar 19 30 Jul 02:33:52 02:39:04 81° 285° (WNW) 02:44:16 437.125/150
BEESAT 30 Jul 02:37:13 02:42:00 76° 257° (WSW) 02:46:48 436.000
ITAMSAT 1 30 Jul 02:37:39 02:40:30 15° 91° (E) 02:43:18 435.822/435.867
Gurwin Techsat 1B 30 Jul 02:39:42 02:44:53 51° 100° (E) 02:50:02 435.225
Cosmos 2499 30 Jul 02:40:38 02:48:20 64° 79° (E) 02:55:27 435.465 / 435.565
MOZHAYETS 4 30 Jul 02:51:53 02:55:06 19° 66° (ENE) 02:58:20
AO-7 30 Jul 02:51:58 02:55:05 12° 88° (E) 02:58:11 29.400- 29.500
ITUPSAT 1 30 Jul 03:02:47 03:07:20 42° 261° (W) 03:11:54 437.325
DANDE 30 Jul 03:14:22 03:17:47 18° 95° (E) 03:20:40 436.750
BEESAT 3 30 Jul 03:16:03 03:19:58 58° 241° (WSW) 03:23:50 437.485
BEESAT 2 30 Jul 03:28:27 03:32:28 84° 242° (WSW) 03:36:27 435.950
KKS-1 30 Jul 03:30:02 03:34:14 43° 72° (ENE) 03:38:28 437.445
ISS 30 Jul 03:30:27 03:33:34 45° 223° (SW) 03:36:41 145.825
PCSat 30 Jul 03:39:53 03:45:07 45° 56° (NE) 03:50:16 145.827
SWISSCUBE 30 Jul 03:58:00 03:59:15 11° 270° (W) 04:00:30 437.505
STARS 30 Jul 03:59:59 04:04:09 45° 72° (ENE) 04:08:22 437.465
CUSAT 1 30 Jul 04:03:52 04:07:30 37° 280° (W) 04:10:26 437.405
GONETS M04 30 Jul 04:09:20 04:16:27 29° 277° (W) 04:23:37
ITAMSAT 1 30 Jul 04:15:14 04:20:23 63° 287° (WNW) 04:25:28 435.822/435.867
Oscar 19 30 Jul 04:17:00 04:17:31 10° 302° (WNW) 04:18:03 437.125/150
AIST 2 30 Jul 04:18:46 04:21:43 18° 46° (NE) 04:24:39 435.215
CUBESAT XI-V 30 Jul 04:19:51 04:23:05 19° 66° (ENE) 04:26:20 437.345
Gurwin Techsat 1B 30 Jul 04:20:36 04:24:26 21° 296° (WNW) 04:28:16 435.225
MOZHAYETS 4 30 Jul 04:27:33 04:31:56 42° 262° (W) 04:36:20
Cosmos 2499 30 Jul 04:35:08 04:40:36 22° 279° (W) 04:45:49 435.465 / 435.565
AO-7 30 Jul 04:40:46 04:49:09 74° 106° (ESE) 04:57:26 29.400- 29.500
RS-15 30 Jul 04:46:54 04:54:43 22° 99° (E) 05:02:44 29.354- 29.394
HORYU 2 30 Jul 04:47:09 04:49:32 14° 92° (E) 04:51:55 437.375
O/OREOS (USA 219) 30 Jul 04:48:22 04:50:37 13° 54° (NE) 04:52:51 437.305
SRMSAT 30 Jul 04:53:48 04:54:18 10° 181° (S) 04:54:47 437.500
DANDE 30 Jul 04:55:36 05:00:28 37° 280° (W) 05:04:13 436.750
KKS-1 30 Jul 05:08:11 05:10:59 16° 267° (W) 05:13:50 437.445
PCSat 30 Jul 05:23:54 05:28:11 24° 253° (WSW) 05:32:28 145.827
STARS 30 Jul 05:38:05 05:40:44 16° 268° (W) 05:43:23 437.465
CUBESAT XI-V 30 Jul 05:55:48 06:00:09 41° 262° (W) 06:04:31 437.345
AIST 2 30 Jul 05:56:25 06:00:26 47° 243° (WSW) 06:04:27 435.215
Cubesat XI-IV 30 Jul 05:56:44 05:59:19 14° 90° (E) 06:01:53 437.490
CUTE-I 30 Jul 06:18:03 06:22:11 23° 94° (E) 06:26:18 437.470
LilacSat-2 30 Jul 06:18:05 06:20:47 18° 94° (E) 06:23:25 437.200
HORYU 2 30 Jul 06:22:02 06:26:22 50° 288° (WNW) 06:30:40 437.375
O/OREOS (USA 219) 30 Jul 06:25:58 06:30:29 66° 251° (WSW) 06:35:00 437.305
NOAA 15 30 Jul 06:26:49 06:31:40 36° 98° (E) 06:36:29 137.62
BRITE-PL 30 Jul 06:32:26 06:37:20 58° 100° (E) 06:42:37 437.365/2234.400
AO-7 30 Jul 06:34:38 06:41:08 26° 305° (NW) 06:47:36 29.400- 29.500
SO-50 30 Jul 06:44:22 06:48:27 27° 112° (ESE) 06:52:32 436.795
RS-15 30 Jul 06:53:52 07:05:19 89° 120° (ESE) 07:17:29 29.354- 29.394
DOVE 4 30 Jul 06:54:51 06:58:54 22° 93° (E) 07:02:57 437.250
STRAND 1 30 Jul 07:06:39 07:11:45 65° 73° (ENE) 07:16:51 437.568
GOMX 1 30 Jul 07:17:39 07:22:51 76° 102° (ESE) 07:28:16 467.674
NOAA 18 30 Jul 07:21:19 07:26:54 84° 104° (ESE) 07:32:25 137.9125
PRISM 30 Jul 07:24:52 07:25:21 10° 62° (ENE) 07:25:51 437.425
Cubesat XI-IV 30 Jul 07:34:33 07:39:53 71° 286° (WNW) 07:45:11 437.490
Cosmos 2491 30 Jul 07:41:01 07:48:45 33° 71° (ENE) 07:56:28 435.465 / 435.565
LilacSat-2 30 Jul 07:51:44 07:55:07 29° 289° (WNW) 07:58:26 437.200
CUTE-I 30 Jul 07:57:22 08:02:24 43° 290° (WNW) 08:07:24 437.470
NOAA 15 30 Jul 08:06:53 08:11:16 28° 294° (WNW) 08:15:40 137.62
BRITE-PL 30 Jul 08:12:17 08:15:26 17° 294° (WNW) 08:18:43 437.365/2234.400
CINEMA 3 30 Jul 08:18:46 08:23:34 43° 98° (E) 08:28:14 145.822/145.860
AAUSAT CUBESAT 2 30 Jul 08:21:34 08:23:01 12° 91° (E) 08:24:30 437.432
